Location: Detroit
(42.3310°N, 83.0460°W)
Time: 07:42:24
(UTC-04:00)

Explorer 11/Cluster Stage 4 - Pass Details

Date: 13 February 2023
Orbit: 466 x 1241 km, 28.8° (Epoch: 02 April)

Event Time Altitude Azimuth Distance (km) Brightness Sun altitude
Exits shadow 06:13:22 - 232° (SW) 2,924 9.1 -15.0°
Reaches altitude 10° 06:13:43 10° 229° (SW) 2,875 9.1 -14.9°
Maximum altitude 06:17:09 14° 200° (SSW) 2,694 9.2 -14.3°
Drops below altitude 10° 06:20:47 10° 172° (S) 3,083 9.8 -13.6°
Sets 06:25:25 0° 150° (SSE) 4,128 10.8 -12.8°
